Weather in Belo sur Mer

Madagascar     20°44′43″S   43°59′46″E
temp.,
°C
wind,
m/s
gust,
m/s
humid.,
%
clouds,
%
prec.,
mm/h
press.,
hPa
HPBL,
m
16 january, sun
sun1600:00+27wnw11769 0.0 1006422
03:00+26ne238176 0.3 1006423
06:00+26nne46849 0.1 1007494
09:00+29nnw55663 0.3 10081126
12:00+30nnw54630 0.3 10071208
15:00+30nw44660 0.9 1006991
18:00+29nw45720 0.0 1006808
21:00+27wnw33763 0.0 1007445
17 january, mon
mon1700:00+26wsw118041 0.8 1007349
03:00+24ene459019 1.5 1006208
06:00+25ne358931 0.5 1008201
09:00+28nne457623 2.3 1009603
12:00+30nnw556651 0.2 10081022
15:00+30nw5464100 0.2 1006917
18:00+29wnw4569100 0.0 1006730
21:00+27wsw337716 0.0 1008512
18 january, tue
tue1800:00+27w227917 0.1 1008383
03:00+26w118123 0.2 1007389
06:00+26ene1280100 0.1 1008398
09:00+29nne3466100 0.1 1009954
12:00+30nnw556051 0.0 10081044
15:00+30nw556475 0.0 1007943
18:00+29wnw55680 0.0 1006797
21:00+27w347677 0.1 1009510
19 january, wed
wed1900:00+26nw1277100 0.3 1009394
03:00+26n34817 0.7 1008425
06:00+25nne458425 0.8 1009439
09:00+27nne557737 1.8 1010802
12:00+28n557323 1.6 1009962
15:00+29nnw436713 2.3 10071071
18:00+28nw33715 0.1 1007550
21:00+26sw3481100 0.7 1008328
20 january, thu
thu2000:00+24sse2289100 0.4 1008123
03:00+24e228754 0.5 1006129
06:00+24ese2387100 0.6 1007137
09:00+28ne2367100 0.6 1008524
12:00+29n4459100 0.0 1007835
15:00+30nnw4360100 0.0 1006883
18:00+28n4571100 0.3 1006567
21:00+25sw2285100 4.4 1008116